"Sample Date","Sample Time","Sample Value","Units","Flow Rate","Laser Status","Micron Size 0","Counts/Channel 0","Micron Size 1","Counts/Channel 1","Micron Size 2","Counts/Channel 2","Micron Size 3","Counts/Channel 3","Micron Size 4","Counts/Channel 4","Micron Size 5","Counts/Channel 5","Micron Size 6","Counts/Channel 6","Micron Size 7","Counts/Channel 7","Micron Size 8","Counts/Channel 8","Micron Size 9","Counts/Channel 9","Micron Size 10","Counts/Channel 10","Micron Size 11","Counts/Channel 11","Micron Size 12","Counts/Channel 12","Micron Size 13","Counts/Channel 13","Micron Size 14","Counts/Channel 14","Micron Size 15","Counts/Channel 15","Micron Size 16","Counts/Channel 16","Micron Size 17","Counts/Channel 17","Micron Size 18","Counts/Channel 18","Micron Size 19","Counts/Channel 19","Micron Size 20","Counts/Channel 20","Micron Size 21","Counts/Channel 21","Micron Size 22","Counts/Channel 22","Micron Size 23","Counts/Channel 23","Micron Size 24","Counts/Channel 24","Micron Size 25","Counts/Channel 25","Micron Size 26","Counts/Channel 26","Micron Size 27","Counts/Channel 27","Micron Size 28","Counts/Channel 28","Micron Size 29","Counts/Channel 29","Micron Size 30","Counts/Channel 30","Micron Size 31","Counts/Channel 31"
"03/02/08","19:00:03",45360.000,"cc",28251.981,1,0.100,41194.000,0.200,2648.000,0.300,617.000,0.500,606.000,1.000,295.000,5.000,0
"03/02/08","19:00:09",45691.000,"cc",28295.307,1,0.100,41433.000,0.200,2747.000,0.300,662.000,0.500,589.000,1.000,260.000,5.000,0
"03/02/08","19:00:15",46393.000,"cc",28307.168,1,0.100,41781.000,0.200,2845.000,0.300,795.000,0.500,661.000,1.000,311.000,5.000,0
"03/02/08","19:00:21",46041.000,"cc",28381.688,1,0.100,41695.000,0.200,2799.000,0.300,673.000,0.500,607.000,1.000,267.000,5.000,0
"03/02/08","19:00:27",46300.000,"cc",28283.305,1,0.100,41956.000,0.200,2747.000,0.300,701.000,0.500,619.000,1.000,277.000,5.000,0
"03/02/08","19:00:33",45442.000,"cc",28333.492,1,0.100,41102.000,0.200,2735.000,0.300,663.000,0.500,624.000,1.000,318.000,5.000,0
"03/02/08","19:00:39",45257.000,"cc",28370.547,1,0.100,41053.000,0.200,2673.000,0.300,660.000,0.500,588.000,1.000,283.000,5.000,0
"03/02/08","19:00:45",44791.000,"cc",28309.617,1,0.100,40825.000,0.200,2544.000,0.300,581.000,0.500,567.000,1.000,274.000,5.000,0
"03/02/08","19:00:51",45102.000,"cc",28290.098,1,0.100,41040.000,0.200,2564.000,0.300,625.000,0.500,577.000,1.000,296.000,5.000,0
"03/02/08","19:00:57",45049.000,"cc",28319.590,1,0.100,41069.000,0.200,2605.000,0.300,579.000,0.500,538.000,1.000,257.000,5.000,1.000
"03/02/08","19:01:03",45522.000,"cc",28324.555,1,0.100,41441.000,0.200,2670.000,0.300,591.000,0.500,553.000,1.000,267.000,5.000,0
"03/02/08","19:01:09",45578.000,"cc",28293.250,1,0.100,41448.000,0.200,2610.000,0.300,644.000,0.500,600.000,1.000,276.000,5.000,0
"03/02/08","19:01:15",45079.000,"cc",28291.402,1,0.100,41093.000,0.200,2567.000,0.300,598.000,0.500,582.000,1.000,239.000,5.000,0
"03/02/08","19:01:21",44961.000,"cc",28310.514,1,0.100,40862.000,0.200,2614.000,0.300,639.000,0.500,556.000,1.000,290.000,5.000,0
"03/02/08","19:01:27",45206.000,"cc",28322.057,1,0.100,41140.000,0.200,2560.000,0.300,641.000,0.500,613.000,1.000,252.000,5.000,0
"03/02/08","19:01:33",44431.000,"cc",28280.770,1,0.100,40565.000,0.200,2438.000,0.300,615.000,0.500,563.000,1.000,250.000,5.000,0
"03/02/08","19:01:39",45177.000,"cc",28366.592,1,0.100,41015.000,0.200,2653.000,0.300,660.000,0.500,601.000,1.000,248.000,5.000,0
"03/02/08","19:01:45",45173.000,"cc",28310.826,1,0.100,41027.000,0.200,2604.000,0.300,685.000,0.500,584.000,1.000,273.000,5.000,0
"03/02/08","19:01:51",44626.000,"cc",28279.477,1,0.100,40667.000,0.200,2496.000,0.300,629.000,0.500,586.000,1.000,248.000,5.000,0
"03/02/08","19:01:57",44820.000,"cc",28370.137,1,0.100,40864.000,0.200,2562.000,0.300,603.000,0.500,542.000,1.000,249.000,5.000,0
"03/02/08","19:02:03",44541.000,"cc",28317.461,1,0.100,40722.000,0.200,2445.000,0.300,614.000,0.500,504.000,1.000,256.000,5.000,0
"03/02/08","19:02:09",44469.000,"cc",28273.885,1,0.100,40491.000,0.200,2536.000,0.300,600.000,0.500,592.000,1.000,250.000,5.000,0
"03/02/08","19:02:15",44771.000,"cc",28252.494,1,0.100,40708.000,0.200,2631.000,0.300,603.000,0.500,552.000,1.000,277.000,5.000,0
"03/02/08","19:02:21",44288.000,"cc",28377.549,1,0.100,40272.000,0.200,2509.000,0.300,642.000,0.500,582.000,1.000,283.000,5.000,0
"03/02/08","19:02:27",44292.000,"cc",28349.168,1,0.100,40365.000,0.200,2435.000,0.300,614.000,0.500,594.000,1.000,284.000,5.000,0
"03/02/08","19:02:33",44423.000,"cc",28339.082,1,0.100,40441.000,0.200,2501.000,0.300,640.000,0.500,586.000,1.000,255.000,5.000,0
"03/02/08","19:02:39",44846.000,"cc",28279.818,1,0.100,40916.000,0.200,2491.000,0.300,645.000,0.500,554.000,1.000,240.000,5.000,0
"03/02/08","19:02:45",44538.000,"cc",28312.758,1,0.100,40624.000,0.200,2472.000,0.300,627.000,0.500,559.000,1.000,256.000,5.000,0
"03/02/08","19:02:51",44760.000,"cc",28313.209,1,0.100,40777.000,0.200,2522.000,0.300,595.000,0.500,598.000,1.000,268.000,5.000,0
"03/02/08","19:02:57",44758.000,"cc",28378.096,1,0.100,40822.000,0.200,2493.000,0.300,609.000,0.500,567.000,1.000,267.000,5.000,0
"03/02/08","19:03:03",44538.000,"cc",28301.449,1,0.100,40624.000,0.200,2445.000,0.300,618.000,0.500,556.000,1.000,295.000,5.000,0
"03/02/08","19:03:09",44933.000,"cc",28296.637,1,0.100,40931.000,0.200,2486.000,0.300,622.000,0.500,618.000,1.000,276.000,5.000,0
"03/02/08","19:03:15",44594.000,"cc",28284.668,1,0.100,40724.000,0.200,2431.000,0.300,660.000,0.500,547.000,1.000,232.000,5.000,0
"03/02/08","19:03:21",44214.000,"cc",28307.367,1,0.100,40345.000,0.200,2419.000,0.300,599.000,0.500,575.000,1.000,276.000,5.000,0
"03/02/08","19:03:27",44305.000,"cc",28290.348,1,0.100,40502.000,0.200,2432.000,0.300,568.000,0.500,556.000,1.000,247.000,5.000,0
"03/02/08","19:03:33",44405.000,"cc",28341.602,1,0.100,40518.000,0.200,2441.000,0.300,582.000,0.500,617.000,1.000,247.000,5.000,0
"03/02/08","19:03:39",44941.000,"cc",28311.627,1,0.100,40907.000,0.200,2567.000,0.300,642.000,0.500,585.000,1.000,240.000,5.000,0
"03/02/08","19:03:45",44924.000,"cc",28350.398,1,0.100,40955.000,0.200,2500.000,0.300,626.000,0.500,568.000,1.000,275.000,5.000,0
"03/02/08","19:03:51",45178.000,"cc",28340.065,1,0.100,41197.000,0.200,2477.000,0.300,651.000,0.500,596.000,1.000,257.000,5.000,0
"03/02/08","19:03:57",45134.000,"cc",28304.525,1,0.100,41186.000,0.200,2453.000,0.300,631.000,0.500,582.000,1.000,282.000,5.000,0
"03/02/08","19:04:03",44810.000,"cc",28240.199,1,0.100,40953.000,0.200,2460.000,0.300,601.000,0.500,544.000,1.000,252.000,5.000,0
"03/02/08","19:04:09",45207.000,"cc",28324.109,1,0.100,41379.000,0.200,2440.000,0.300,600.000,0.500,532.000,1.000,255.000,5.000,1.000
"03/02/08","19:04:15",44911.000,"cc",28385.301,1,0.100,40869.000,0.200,2536.000,0.300,618.000,0.500,607.000,1.000,281.000,5.000,0
"03/02/08","19:04:21",44987.000,"cc",28311.832,1,0.100,41017.000,0.200,2581.000,0.300,562.000,0.500,565.000,1.000,262.000,5.000,0
"03/02/08","19:04:27",45122.000,"cc",28306.539,1,0.100,41172.000,0.200,2474.000,0.300,612.000,0.500,597.000,1.000,267.000,5.000,0
"03/02/08","19:04:33",45285.000,"cc",28336.484,1,0.100,41447.000,0.200,2379.000,0.300,630.000,0.500,565.000,1.000,264.000,5.000,0
"03/02/08","19:04:39",45288.000,"cc",28302.672,1,0.100,41321.000,0.200,2513.000,0.300,585.000,0.500,585.000,1.000,284.000,5.000,0
"03/02/08","19:04:45",44743.000,"cc",28337.152,1,0.100,40814.000,0.200,2435.000,0.300,635.000,0.500,601.000,1.000,258.000,5.000,0
"03/02/08","19:04:51",44951.000,"cc",28357.027,1,0.100,40924.000,0.200,2599.000,0.300,574.000,0.500,591.000,1.000,263.000,5.000,0
"03/02/08","19:04:57",44680.000,"cc",28271.781,1,0.100,40812.000,0.200,2472.000,0.300,618.000,0.500,539.000,1.000,239.000,5.000,0
"03/02/08","19:05:03",44584.000,"cc",28326.133,1,0.100,40762.000,0.200,2383.000,0.300,608.000,0.500,582.000,1.000,249.000,5.000,0
"03/02/08","19:05:09",44141.000,"cc",28314.277,1,0.100,40436.000,0.200,2271.000,0.300,609.000,0.500,567.000,1.000,258.000,5.000,0
"03/02/08","19:05:15",44802.000,"cc",28326.826,1,0.100,40518.000,0.200,2559.000,0.300,726.000,0.500,674.000,1.000,325.000,5.000,0
"03/02/08","19:05:21",44460.000,"cc",28302.010,1,0.100,40586.000,0.200,2347.000,0.300,695.000,0.500,583.000,1.000,249.000,5.000,0
"03/02/08","19:05:27",44454.000,"cc",28282.791,1,0.100,40507.000,0.200,2466.000,0.300,620.000,0.500,561.000,1.000,300.000,5.000,0
"03/02/08","19:05:33",44286.000,"cc",28306.147,1,0.100,40477.000,0.200,2320.000,0.300,631.000,0.500,600.000,1.000,258.000,5.000,0
"03/02/08","19:05:39",44449.000,"cc",28324.658,1,0.100,40691.000,0.200,2287.000,0.300,614.000,0.500,573.000,1.000,284.000,5.000,0
"03/02/08","19:05:45",44693.000,"cc",28359.486,1,0.100,40969.000,0.200,2328.000,0.300,556.000,0.500,566.000,1.000,274.000,5.000,0
"03/02/08","19:05:51",44048.000,"cc",28310.121,1,0.100,40280.000,0.200,2363.000,0.300,609.000,0.500,537.000,1.000,259.000,5.000,0
"03/02/08","19:05:57",43879.000,"cc",28304.781,1,0.100,40224.000,0.200,2266.000,0.300,575.000,0.500,571.000,1.000,243.000,5.000,0
"03/02/08","19:06:03",44097.000,"cc",28319.125,1,0.100,40370.000,0.200,2302.000,0.300,585.000,0.500,582.000,1.000,258.000,5.000,0
"03/02/08","19:06:09",44075.000,"cc",28286.600,1,0.100,40354.000,0.200,2313.000,0.300,579.000,0.500,576.000,1.000,253.000,5.000,0
"03/02/08","19:06:15",44464.000,"cc",28364.842,1,0.100,40704.000,0.200,2323.000,0.300,586.000,0.500,587.000,1.000,264.000,5.000,0
"03/02/08","19:06:21",44670.000,"cc",28341.522,1,0.100,40765.000,0.200,2434.000,0.300,625.000,0.500,587.000,1.000,259.000,5.000,0
"03/02/08","19:06:27",44406.000,"cc",28248.113,1,0.100,40671.000,0.200,2320.000,0.300,561.000,0.500,587.000,1.000,267.000,5.000,0
"03/02/08","19:06:33",44133.000,"cc",28345.039,1,0.100,40272.000,0.200,2405.000,0.300,613.000,0.500,605.000,1.000,238.000,5.000,0
"03/02/08","19:06:39",44491.000,"cc",28392.408,1,0.100,40692.000,0.200,2383.000,0.300,583.000,0.500,565.000,1.000,268.000,5.000,0
"03/02/08","19:06:45",44317.000,"cc",28278.506,1,0.100,40519.000,0.200,2352.000,0.300,590.000,0.500,579.000,1.000,277.000,5.000,0
"03/02/08","19:06:51",45110.000,"cc",28270.023,1,0.100,41352.000,0.200,2362.000,0.300,551.000,0.500,574.000,1.000,271.000,5.000,0
"03/02/08","19:06:57",44541.000,"cc",28327.275,1,0.100,40726.000,0.200,2437.000,0.300,571.000,0.500,570.000,1.000,237.000,5.000,0
"03/02/08","19:07:03",44898.000,"cc",28330.551,1,0.100,40987.000,0.200,2397.000,0.300,649.000,0.500,577.000,1.000,288.000,5.000,0
"03/02/08","19:07:09",44627.000,"cc",28343.061,1,0.100,40831.000,0.200,2329.000,0.300,633.000,0.500,565.000,1.000,269.000,5.000,0
"03/02/08","19:07:15",44431.000,"cc",28340.473,1,0.100,40523.000,0.200,2425.000,0.300,597.000,0.500,611.000,1.000,275.000,5.000,0
"03/02/08","19:07:21",44632.000,"cc",28267.279,1,0.100,40755.000,0.200,2330.000,0.300,648.000,0.500,615.000,1.000,284.000,5.000,0
"03/02/08","19:07:27",44757.000,"cc",28312.328,1,0.100,40951.000,0.200,2330.000,0.300,620.000,0.500,596.000,1.000,260.000,5.000,0
"03/02/08","19:07:33",44105.000,"cc",28356.676,1,0.100,40296.000,0.200,2328.000,0.300,617.000,0.500,603.000,1.000,261.000,5.000,0
"03/02/08","19:07:39",44464.000,"cc",28336.342,1,0.100,40572.000,0.200,2426.000,0.300,600.000,0.500,595.000,1.000,271.000,5.000,0
"03/02/08","19:07:45",44205.000,"cc",28344.125,1,0.100,40477.000,0.200,2307.000,0.300,582.000,0.500,579.000,1.000,260.000,5.000,0
"03/02/08","19:07:51",44113.000,"cc",28302.266,1,0.100,40478.000,0.200,2280.000,0.300,549.000,0.500,557.000,1.000,249.000,5.000,0
"03/02/08","19:07:57",44383.000,"cc",28291.602,1,0.100,40478.000,0.200,2412.000,0.300,588.000,0.500,598.000,1.000,307.000,5.000,0
"03/02/08","19:08:03",45036.000,"cc",28314.961,1,0.100,41338.000,0.200,2303.000,0.300,604.000,0.500,561.000,1.000,230.000,5.000,0
"03/02/08","19:08:09",44840.000,"cc",28307.049,1,0.100,41026.000,0.200,2353.000,0.300,638.000,0.500,573.000,1.000,250.000,5.000,0
"03/02/08","19:08:15",44704.000,"cc",28355.096,1,0.100,40856.000,0.200,2356.000,0.300,633.000,0.500,617.000,1.000,242.000,5.000,0
"03/02/08","19:08:21",44608.000,"cc",28308.699,1,0.100,40821.000,0.200,2344.000,0.300,583.000,0.500,587.000,1.000,273.000,5.000,0
"03/02/08","19:08:27",44728.000,"cc",28294.107,1,0.100,41007.000,0.200,2332.000,0.300,553.000,0.500,574.000,1.000,262.000,5.000,0
"03/02/08","19:08:33",44362.000,"cc",28329.477,1,0.100,40513.000,0.200,2367.000,0.300,606.000,0.500,595.000,1.000,281.000,5.000,0
"03/02/08","19:08:39",43776.000,"cc",28353.242,1,0.100,40030.000,0.200,2249.000,0.300,643.000,0.500,574.000,1.000,280.000,5.000,0
"03/02/08","19:08:45",44249.000,"cc",28307.074,1,0.100,40451.000,0.200,2319.000,0.300,593.000,0.500,605.000,1.000,281.000,5.000,0
"03/02/08","19:08:51",44104.000,"cc",28261.551,1,0.100,40247.000,0.200,2401.000,0.300,648.000,0.500,540.000,1.000,268.000,5.000,0
"03/02/08","19:08:57",44078.000,"cc",28305.961,1,0.100,40368.000,0.200,2230.000,0.300,624.000,0.500,575.000,1.000,281.000,5.000,0
"03/02/08","19:09:03",44040.000,"cc",28292.908,1,0.100,40316.000,0.200,2322.000,0.300,578.000,0.500,555.000,1.000,269.000,5.000,0
"03/02/08","19:09:09",44183.000,"cc",28394.658,1,0.100,40299.000,0.200,2388.000,0.300,617.000,0.500,619.000,1.000,260.000,5.000,0
"03/02/08","19:09:15",44064.000,"cc",28360.135,1,0.100,40415.000,0.200,2224.000,0.300,604.000,0.500,543.000,1.000,278.000,5.000,0
"03/02/08","19:09:21",44039.000,"cc",28322.260,1,0.100,40292.000,0.200,2348.000,0.300,579.000,0.500,563.000,1.000,257.000,5.000,0
"03/02/08","19:09:27",44029.000,"cc",28285.770,1,0.100,40241.000,0.200,2364.000,0.300,595.000,0.500,558.000,1.000,271.000,5.000,0
"03/02/08","19:09:33",44074.000,"cc",28269.693,1,0.100,40314.000,0.200,2343.000,0.300,557.000,0.500,590.000,1.000,270.000,5.000,0
"03/02/08","19:09:39",44013.000,"cc",28337.236,1,0.100,40303.000,0.200,2272.000,0.300,602.000,0.500,567.000,1.000,269.000,5.000,0
"03/02/08","19:09:45",43924.000,"cc",28334.451,1,0.100,40109.000,0.200,2377.000,0.300,610.000,0.500,556.000,1.000,272.000,5.000,0
"03/02/08","19:09:51",43773.000,"cc",28338.688,1,0.100,40028.000,0.200,2303.000,0.300,576.000,0.500,605.000,1.000,261.000,5.000,0
"03/02/08","19:09:57",44039.000,"cc",28283.367,1,0.100,40378.000,0.200,2282.000,0.300,608.000,0.500,526.000,1.000,245.000,5.000,0
"03/02/08","19:10:03",44206.000,"cc",28306.820,1,0.100,40410.000,0.200,2362.000,0.300,622.000,0.500,538.000,1.000,274.000,5.000,0
"03/02/08","19:10:09",44274.000,"cc",28330.215,1,0.100,40503.000,0.200,2302.000,0.300,627.000,0.500,572.000,1.000,270.000,5.000,0
"03/02/08","19:10:15",44174.000,"cc",28348.301,1,0.100,40385.000,0.200,2308.000,0.300,594.000,0.500,626.000,1.000,261.000,5.000,0
"03/02/08","19:10:21",44083.000,"cc",28285.789,1,0.100,40384.000,0.200,2271.000,0.300,566.000,0.500,591.000,1.000,271.000,5.000,0
"03/02/08","19:10:27",44431.000,"cc",28282.318,1,0.100,40666.000,0.200,2295.000,0.300,633.000,0.500,575.000,1.000,262.000,5.000,0
"03/02/08","19:10:33",44031.000,"cc",28334.127,1,0.100,40242.000,0.200,2266.000,0.300,599.000,0.500,619.000,1.000,305.000,5.000,0
"03/02/08","19:10:39",44038.000,"cc",28267.065,1,0.100,40389.000,0.200,2206.000,0.300,596.000,0.500,589.000,1.000,258.000,5.000,0
"03/02/08","19:10:45",44289.000,"cc",28301.299,1,0.100,40437.000,0.200,2392.000,0.300,589.000,0.500,585.000,1.000,286.000,5.000,0
"03/02/08","19:10:51",43869.000,"cc",28321.254,1,0.100,40147.000,0.200,2313.000,0.300,594.000,0.500,572.000,1.000,243.000,5.000,0
"03/02/08","19:10:57",44101.000,"cc",28395.967,1,0.100,40273.000,0.200,2362.000,0.300,595.000,0.500,591.000,1.000,280.000,5.000,0
"03/02/08","19:11:03",43665.000,"cc",28354.447,1,0.100,39861.000,0.200,2271.000,0.300,628.000,0.500,649.000,1.000,256.000,5.000,0
"03/02/08","19:11:09",43816.000,"cc",28318.258,1,0.100,40153.000,0.200,2160.000,0.300,633.000,0.500,607.000,1.000,263.000,5.000,0
"03/02/08","19:11:15",43971.000,"cc",28290.486,1,0.100,40156.000,0.200,2288.000,0.300,623.000,0.500,628.000,1.000,276.000,5.000,0
"03/02/08","19:11:21",44514.000,"cc",28322.654,1,0.100,40684.000,0.200,2327.000,0.300,656.000,0.500,601.000,1.000,246.000,5.000,0
"03/02/08","19:11:27",43937.000,"cc",28301.162,1,0.100,40188.000,0.200,2285.000,0.300,621.000,0.500,594.000,1.000,249.000,5.000,0
"03/02/08","19:11:33",44306.000,"cc",28340.313,1,0.100,40600.000,0.200,2279.000,0.300,586.000,0.500,553.000,1.000,288.000,5.000,0
"03/02/08","19:11:39",43729.000,"cc",28317.270,1,0.100,40137.000,0.200,2200.000,0.300,588.000,0.500,528.000,1.000,276.000,5.000,0
"03/02/08","19:11:45",43999.000,"cc",28357.652,1,0.100,40271.000,0.200,2279.000,0.300,605.000,0.500,555.000,1.000,289.000,5.000,0
"03/02/08","19:11:51",43425.000,"cc",28328.854,1,0.100,39820.000,0.200,2180.000,0.300,624.000,0.500,527.000,1.000,274.000,5.000,0
"03/02/08","19:11:57",43365.000,"cc",28274.779,1,0.100,39701.000,0.200,2235.000,0.300,607.000,0.500,580.000,1.000,242.000,5.000,0
"03/02/08","19:12:03",43702.000,"cc",28335.654,1,0.100,40007.000,0.200,2302.000,0.300,565.000,0.500,565.000,1.000,263.000,5.000,0
"03/02/08","19:12:09",44060.000,"cc",28264.854,1,0.100,40435.000,0.200,2191.000,0.300,576.000,0.500,569.000,1.000,289.000,5.000,0
"03/02/08","19:12:15",44007.000,"cc",28301.356,1,0.100,40314.000,0.200,2234.000,0.300,625.000,0.500,565.000,1.000,269.000,5.000,0
"03/02/08","19:12:21",43811.000,"cc",28285.732,1,0.100,40157.000,0.200,2232.000,0.300,576.000,0.500,588.000,1.000,258.000,5.000,0
"03/02/08","19:12:27",43605.000,"cc",28360.484,1,0.100,39990.000,0.200,2136.000,0.300,609.000,0.500,628.000,1.000,242.000,5.000,0
"03/02/08","19:12:33",43447.000,"cc",28297.225,1,0.100,39773.000,0.200,2212.000,0.300,616.000,0.500,581.000,1.000,265.000,5.000,0
"03/02/08","19:12:39",43564.000,"cc",28304.998,1,0.100,39916.000,0.200,2160.000,0.300,623.000,0.500,605.000,1.000,260.000,5.000,0
"03/02/08","19:12:45",43446.000,"cc",28316.664,1,0.100,39753.000,0.200,2255.000,0.300,602.000,0.500,567.000,1.000,269.000,5.000,0
"03/02/08","19:12:51",43480.000,"cc",28293.660,1,0.100,39891.000,0.200,2172.000,0.300,608.000,0.500,543.000,1.000,266.000,5.000,0
"03/02/08","19:12:57",43784.000,"cc",28345.025,1,0.100,40143.000,0.200,2200.000,0.300,598.000,0.500,558.000,1.000,285.000,5.000,0
"03/02/08","19:13:03",43605.000,"cc",28321.141,1,0.100,40068.000,0.200,2092.000,0.300,564.000,0.500,617.000,1.000,264.000,5.000,0
"03/02/08","19:13:09",43708.000,"cc",28313.652,1,0.100,40046.000,0.200,2184.000,0.300,643.000,0.500,570.000,1.000,265.000,5.000,0
"03/02/08","19:13:15",43609.000,"cc",28330.604,1,0.100,40047.000,0.200,2164.000,0.300,593.000,0.500,561.000,1.000,244.000,5.000,0
"03/02/08","19:13:21",42969.000,"cc",28301.518,1,0.100,39330.000,0.200,2154.000,0.300,648.000,0.500,560.000,1.000,277.000,5.000,0
"03/02/08","19:13:27",43165.000,"cc",28335.348,1,0.100,39542.000,0.200,2170.000,0.300,627.000,0.500,560.000,1.000,266.000,5.000,0
"03/02/08","19:13:33",43375.000,"cc",28296.824,1,0.100,39859.000,0.200,2097.000,0.300,605.000,0.500,546.000,1.000,268.000,5.000,0
"03/02/08","19:13:39",43200.000,"cc",28345.307,1,0.100,39590.000,0.200,2163.000,0.300,566.000,0.500,582.000,1.000,299.000,5.000,0
"03/02/08","19:13:45",43281.000,"cc",28341.850,1,0.100,39707.000,0.200,2104.000,0.300,595.000,0.500,587.000,1.000,288.000,5.000,0
"03/02/08","19:13:51",43382.000,"cc",28266.971,1,0.100,39838.000,0.200,2144.000,0.300,592.000,0.500,550.000,1.000,258.000,5.000,0
"03/02/08","19:13:57",43439.000,"cc",28324.225,1,0.100,39787.000,0.200,2177.000,0.300,622.000,0.500,586.000,1.000,267.000,5.000,0
"03/02/08","19:14:03",43373.000,"cc",28313.934,1,0.100,39686.000,0.200,2219.000,0.300,615.000,0.500,567.000,1.000,286.000,5.000,0
"03/02/08","19:14:09",43369.000,"cc",28297.943,1,0.100,39772.000,0.200,2218.000,0.300,594.000,0.500,532.000,1.000,253.000,5.000,0
"03/02/08","19:14:15",43416.000,"cc",28309.662,1,0.100,39810.000,0.200,2230.000,0.300,546.000,0.500,540.000,1.000,290.000,5.000,0
"03/02/08","19:14:21",43138.000,"cc",28289.598,1,0.100,39599.000,0.200,2165.000,0.300,562.000,0.500,563.000,1.000,249.000,5.000,0
"03/02/08","19:14:27",43124.000,"cc",28321.523,1,0.100,39572.000,0.200,2082.000,0.300,631.000,0.500,567.000,1.000,272.000,5.000,0
"03/02/08","19:14:33",42636.000,"cc",28331.088,1,0.100,39000.000,0.200,2171.000,0.300,640.000,0.500,565.000,1.000,260.000,5.000,0
"03/02/08","19:14:39",42871.000,"cc",28335.721,1,0.100,39387.000,0.200,2092.000,0.300,559.000,0.500,567.000,1.000,266.000,5.000,0
"03/02/08","19:14:45",42806.000,"cc",28341.645,1,0.100,39301.000,0.200,2101.000,0.300,555.000,0.500,574.000,1.000,275.000,5.000,0
"03/02/08","19:14:51",42867.000,"cc",28349.645,1,0.100,39363.000,0.200,2133.000,0.300,600.000,0.500,533.000,1.000,237.000,5.000,1.000
"03/02/08","19:14:57",42754.000,"cc",28322.195,1,0.100,39239.000,0.200,2136.000,0.300,580.000,0.500,546.000,1.000,253.000,5.000,0
"03/02/08","19:15:03",42352.000,"cc",28257.440,1,0.100,38848.000,0.200,2065.000,0.300,593.000,0.500,600.000,1.000,246.000,5.000,0
"03/02/08","19:15:09",42713.000,"cc",28193.691,1,0.100,39178.000,0.200,2077.000,0.300,630.000,0.500,561.000,1.000,267.000,5.000,0
"03/02/08","19:15:15",42950.000,"cc",28313.584,1,0.100,39364.000,0.200,2126.000,0.300,584.000,0.500,611.000,1.000,265.000,5.000,0
"03/02/08","19:15:21",42566.000,"cc",28273.598,1,0.100,39103.000,0.200,2043.000,0.300,604.000,0.500,545.000,1.000,271.000,5.000,0
"03/02/08","19:15:27",42667.000,"cc",28360.682,1,0.100,39189.000,0.200,2088.000,0.300,554.000,0.500,571.000,1.000,265.000,5.000,0
"03/02/08","19:15:33",42449.000,"cc",28418.955,1,0.100,39001.000,0.200,2031.000,0.300,561.000,0.500,569.000,1.000,287.000,5.000,0
"03/02/08","19:15:39",42693.000,"cc",28246.285,1,0.100,39280.000,0.200,2005.000,0.300,575.000,0.500,575.000,1.000,258.000,5.000,0
"03/02/08","19:15:45",42612.000,"cc",28299.996,1,0.100,39256.000,0.200,1985.000,0.300,565.000,0.500,521.000,1.000,285.000,5.000,0
"03/02/08","19:15:51",42485.000,"cc",28325.102,1,0.100,38968.000,0.200,2129.000,0.300,595.000,0.500,535.000,1.000,258.000,5.000,0
"03/02/08","19:15:57",42760.000,"cc",28392.035,1,0.100,39138.000,0.200,2086.000,0.300,654.000,0.500,593.000,1.000,289.000,5.000,0
"03/02/08","19:16:03",42582.000,"cc",28236.568,1,0.100,39080.000,0.200,2102.000,0.300,545.000,0.500,585.000,1.000,270.000,5.000,0
"03/02/08","19:16:09",42666.000,"cc",28325.047,1,0.100,39170.000,0.200,2021.000,0.300,587.000,0.500,613.000,1.000,275.000,5.000,0
"03/02/08","19:16:15",42574.000,"cc",28371.590,1,0.100,38983.000,0.200,2104.000,0.300,642.000,0.500,590.000,1.000,255.000,5.000,0
"03/02/08","19:16:21",42499.000,"cc",28292.527,1,0.100,39018.000,0.200,2107.000,0.300,588.000,0.500,553.000,1.000,233.000,5.000,0
"03/02/08","19:16:27",42535.000,"cc",28318.690,1,0.100,39077.000,0.200,2103.000,0.300,539.000,0.500,557.000,1.000,259.000,5.000,0
"03/02/08","19:16:33",42131.000,"cc",28365.584,1,0.100,38629.000,0.200,2062.000,0.300,580.000,0.500,571.000,1.000,289.000,5.000,0
"03/02/08","19:16:39",42757.000,"cc",28290.201,1,0.100,39166.000,0.200,2096.000,0.300,607.000,0.500,600.000,1.000,288.000,5.000,0
"03/02/08","19:16:45",42245.000,"cc",28331.346,1,0.100,38717.000,0.200,2083.000,0.300,597.000,0.500,597.000,1.000,251.000,5.000,0
"03/02/08","19:16:51",42588.000,"cc",28344.742,1,0.100,39225.000,0.200,1923.000,0.300,601.000,0.500,544.000,1.000,295.000,5.000,0
"03/02/08","19:16:57",42488.000,"cc",28319.898,1,0.100,39016.000,0.200,2011.000,0.300,601.000,0.500,609.000,1.000,251.000,5.000,0
"03/02/08","19:17:03",42460.000,"cc",28322.018,1,0.100,39056.000,0.200,1939.000,0.300,572.000,0.500,616.000,1.000,277.000,5.000,0
"03/02/08","19:17:09",42120.000,"cc",28306.840,1,0.100,38594.000,0.200,2071.000,0.300,599.000,0.500,595.000,1.000,261.000,5.000,0
"03/02/08","19:17:15",42326.000,"cc",28350.395,1,0.100,38916.000,0.200,2002.000,0.300,594.000,0.500,544.000,1.000,270.000,5.000,0